Wind_Speed
17 17 17 17 18 19 19 20 22 22 22 22 22 24 25 24 24 23 22 23 24 23 23 23 24 24 24 23 23 24 23 21 20 19 19 19 19 20 20 20 19 18 19 19
18 19 19 19 19 20 21 21 22 22 22 22 23 24 24 24 25 24 24 24 24 24 23 24 24 24 24 23 23 22 21 19 20 19 19 19 19 20 20 20 19 18 18 19
20 19 20 21 21 21 22 23 23 23 23 23 24 25 24 24 24 24 25 24 24 23 23 23 24 24 23 22 22 20 20 19 18 18 18 18 18 19 19 18 17 17 18 18
21 20 20 22 22 21 21 22 23 23 23 23 24 24 24 25 24 24 25 24 23 23 22 23 22 22 22 21 21 19 18 17 17 17 17 17 17 17 17 17 17 18 18 18
22 22 23 23 23 21 22 23 24 24 24 23 23 23 23 23 23 24 23 22 22 23 22 22 22 22 21 20 19 18 17 17 17 16 16 17 16 15 16 16 16 17 18 17
24 24 24 25 23 24 25 25 25 24 25 25 24 23 23 23 22 22 22 22 22 22 22 22 21 21 21 20 19 18 17 16 16 15 15 15 15 14 15 16 16 17 16 16
24 24 25 25 25 24 25 25 25 25 26 26 25 24 24 23 22 22 22 22 22 21 22 22 21 21 20 19 18 17 16 15 14 14 14 14 14 14 14 15 15 15 15 16
24 24 25 25 25 25 25 25 25 25 25 25 25 24 23 22 22 21 22 21 21 21 21 20 20 20 19 17 17 15 14 14 13 13 13 13 13 13 14 13 13 14 15 15
25 25 25 26 25 25 25 24 24 23 23 23 23 23 22 22 22 22 21 20 20 20 19 19 18 17 17 16 14 14 12 12 12 12 12 11 11 12 12 13 13 14 15 15
26 25 25 25 24 24 23 23 22 22 22 22 22 22 22 22 21 20 19 19 19 18 17 17 16 15 14 14 13 12 11 11 11 10 10 9 9 10 11 12 13 13 14 15
26 26 25 23 23 23 22 21 20 20 20 21 22 22 21 21 20 19 18 18 17 16 15 15 14 13 13 13 12 10 9 9 9 8 8 8 8 9 10 11 12 14 14 15
26 25 24 23 22 21 21 20 20 20 20 21 21 21 20 19 17 17 17 15 15 14 13 12 12 12 11 11 9 8 8 8 7 7 6 7 8 9 10 11 13 14 14 15
24 24 24 23 22 22 21 20 19 19 19 20 19 19 18 17 15 15 14 13 12 11 11 10 9 9 8 8 7 7 7 7 7 6 6 7 8 10 10 12 13 14 15 16
24 24 24 22 22 21 20 20 19 18 18 18 17 17 16 15 14 13 11 10 10 9 8 8 7 7 6 6 6 6 6 6 6 6 7 8 9 10 11 12 13 14 16 17
23 23 22 22 21 20 19 18 18 17 17 16 15 15 14 13 12 11 9 9 8 8 7 7 6 5 5 5 5 5 6 5 5 5 7 8 9 10 11 12 14 15 17 17
23 22 21 20 20 19 18 17 17 17 16 16 15 14 13 12 11 10 9 8 7 7 7 6 5 4 3 4 5 5 5 5 5 6 7 8 10 11 12 13 14 15 16 17
21 20 20 19 18 17 17 16 17 16 15 15 14 13 12 11 10 9 8 7 7 6 6 5 4 3 3 3 4 4 4 5 6 7 9 9 10 11 12 13 15 16 17 17
20 20 20 19 17 16 16 16 15 15 15 14 12 12 11 11 9 8 7 7 6 5 5 4 3 2 2 2 4 4 4 5 7 8 9 10 11 12 13 14 15 16 17 17
20 19 19 18 17 16 16 16 15 14 13 12 11 11 10 10 9 7 6 6 6 5 4 3 2 2 2 2 3 5 6 7 7 8 9 10 12 13 14 14 15 17 17 18
20 19 18 18 17 16 15 15 15 14 13 12 11 11 10 9 8 6 5 6 6 5 5 4 3 2 2 3 4 5 6 7 7 8 9 11 13 13 14 14 16 17 18 18
20 19 18 17 17 16 15 15 14 14 13 12 11 10 10 9 8 7 6 6 6 6 5 5 4 4 3 3 4 5 6 7 7 8 10 11 12 13 14 15 16 18 18 19
20 19 18 17 17 16 15 15 15 14 13 12 12 10 9 9 8 7 6 6 6 6 6 5 5 5 4 3 4 5 6 7 8 9 10 11 12 13 14 15 16 17 18 19
20 19 18 18 17 17 16 15 14 14 13 12 11 11 10 9 9 8 7 7 7 6 6 6 6 6 5 4 5 6 6 7 8 9 10 11 12 13 14 15 16 18 19 20
21 20 19 19 18 17 16 15 15 14 13 13 12 11 10 10 9 8 8 7 8 7 7 6 6 6 5 5 5 6 6 7 8 9 10 11 12 13 14 16 17 19 19 21
21 21 20 19 18 17 16 15 15 14 13 13 13 12 11 10 10 9 9 8 8 8 7 7 7 6 5 5 6 6 6 7 8 9 10 11 12 13 15 16 18 19 20 21
22 21 20 19 18 17 16 15 14 14 13 13 13 12 12 11 10 10 9 8 8 8 8 7 7 6 6 6 6 7 7 8 8 9 9 11 12 14 15 17 19 20 21 22
21 21 20 19 18 17 16 15 14 14 14 14 13 12 13 12 12 11 10 9 9 9 8 8 7 7 6 6 7 7 7 7 8 9 10 11 13 14 16 17 19 20 21 22
Wind_Direction
307 308 308 304 302 299 299 296 295 297 293 289 288 290 291 292 293 297 300 302 303 301 301 302 304 305 306 304 301 299 299 299 300 302 303 305 309 314 314 313 314 317 319 321
308 308 309 305 302 300 299 296 294 297 297 291 290 293 293 294 295 296 299 300 301 301 300 300 302 305 306 306 304 300 298 299 300 301 301 302 305 309 317 314 315 317 319 323
308 306 305 302 304 303 302 299 296 295 294 292 293 293 294 294 296 296 297 298 299 299 300 302 303 304 305 305 304 301 298 298 301 304 304 304 305 309 314 316 318 318 321 324
309 307 302 302 304 303 303 298 299 299 294 295 297 295 295 295 296 296 296 298 298 299 301 303 305 304 305 305 305 302 299 298 301 304 304 307 309 310 312 318 321 322 323 325
310 306 303 303 305 303 301 298 300 300 299 299 299 297 297 296 298 298 298 298 300 301 303 305 307 305 305 306 304 301 301 300 303 303 303 306 309 313 315 321 324 326 327 325
310 306 304 304 307 304 301 297 300 299 298 300 300 298 296 295 296 297 298 298 300 303 304 306 307 307 306 305 303 301 301 300 304 305 303 306 310 313 320 323 325 326 326 328
308 306 302 305 302 299 298 297 297 296 296 298 298 297 296 294 294 294 296 297 299 301 303 305 305 306 307 306 305 305 303 302 308 308 307 307 310 313 318 322 326 329 331 333
304 303 300 300 297 295 295 295 295 294 294 295 296 296 296 295 293 293 295 296 297 299 301 303 304 304 307 309 308 307 306 305 309 311 311 310 309 312 320 323 325 330 332 334
302 300 298 297 297 296 295 295 295 295 295 295 296 295 294 293 292 293 294 295 297 299 301 301 303 304 309 313 312 308 307 307 308 313 313 311 315 319 325 329 329 332 334 333
302 301 298 297 296 296 296 298 299 299 297 295 298 299 296 294 292 292 293 295 297 298 300 301 302 305 310 312 311 308 306 308 310 313 313 312 325 332 333 336 338 339 340 339
301 302 299 297 295 296 297 299 297 298 299 297 299 300 299 297 293 291 294 296 297 297 296 300 304 307 311 312 308 308 309 312 316 316 314 318 329 336 340 342 344 342 341 342
302 303 301 299 298 299 298 296 295 295 296 296 297 297 298 297 294 292 295 295 296 296 297 300 305 307 311 315 310 309 315 327 332 326 324 328 337 340 343 345 345 346 345 345
302 302 301 299 297 297 295 293 294 294 294 296 296 297 297 295 293 295 295 297 299 298 297 299 308 312 314 319 321 327 332 336 334 336 337 337 341 343 344 346 347 348 347 345
301 300 299 298 298 297 295 294 295 296 296 298 298 297 296 294 292 292 294 296 297 297 298 302 309 315 321 328 332 336 343 342 336 337 339 342 343 345 346 347 347 346 344 342
300 300 298 299 300 298 295 293 294 295 296 297 300 299 297 294 291 288 293 291 289 291 293 299 306 313 321 330 335 339 343 344 345 343 339 343 344 346 348 346 344 344 343 343
298 298 298 298 300 298 295 291 291 294 295 296 298 299 298 293 289 286 290 284 283 285 289 294 296 297 307 321 331 338 339 342 341 339 336 340 341 342 344 343 341 343 344 344
295 295 295 296 298 296 295 293 292 292 293 294 294 295 295 291 288 289 286 278 278 281 284 284 278 276 294 318 329 338 341 343 342 340 337 338 339 339 341 343 342 344 344 344
293 292 294 294 295 293 293 292 291 289 289 289 289 293 295 291 285 281 279 278 275 276 275 263 245 246 289 318 329 334 340 343 345 341 340 341 341 340 340 340 343 345 345 344
290 290 292 293 292 289 288 288 287 285 286 286 286 291 294 290 283 279 279 271 267 264 254 236 230 257 290 306 321 333 339 342 344 342 341 341 340 340 340 341 344 347 346 344
288 287 288 289 288 288 285 285 283 281 280 279 281 286 285 279 274 276 268 258 255 250 236 222 224 237 263 294 319 333 335 337 339 342 345 343 341 341 341 342 344 347 348 346
285 285 285 285 285 284 282 282 279 277 276 275 275 278 273 266 266 268 264 255 245 237 230 223 232 250 261 290 317 326 331 334 334 335 338 341 343 343 344 345 345 347 348 347
279 281 282 282 283 282 280 278 275 272 272 271 267 266 264 259 258 260 258 245 232 229 228 234 246 253 262 287 312 321 327 332 332 333 334 337 341 344 346 347 346 348 349 348
276 277 279 280 280 279 277 274 270 268 266 264 261 257 253 253 254 254 246 234 230 230 235 243 248 252 261 283 307 318 323 330 331 332 334 338 342 345 346 346 347 349 349 348
272 273 276 277 277 277 273 268 265 263 258 253 253 252 251 250 247 245 240 236 236 238 243 245 249 252 261 281 302 313 319 327 331 333 336 339 342 343 344 346 346 347 348 347
269 269 271 272 272 271 268 263 259 256 250 248 248 246 242 240 238 234 232 236 239 239 238 239 244 246 263 281 301 310 313 323 330 333 336 338 341 343 344 346 347 347 347 347
265 265 266 266 266 264 262 257 251 247 246 243 241 239 235 231 230 230 232 236 239 236 235 238 245 256 270 281 297 304 308 319 325 329 334 337 339 341 343 345 346 347 347 347
261 260 260 259 259 260 259 254 246 242 240 237 234 231 227 226 228 230 232 234 232 230 231 238 253 265 271 281 295 302 308 317 324 329 334 337 338 340 342 345 346 346 346 346
Height
5820 5818 5816 5814 5813 5812 5810 5807 5805 5803 5800 5797 5795 5793 5791 5789 5788 5787 5786 5785 5783 5781 5778 5776 5774 5772 5769 5766 5764 5762 5760 5758 5756 5755 5753 5750 5748 5745 5742 5740 5737 5734 5731 5729
5816 5815 5812 5810 5809 5807 5805 5802 5800 5797 5794 5791 5790 5788 5786 5785 5784 5782 5781 5779 5777 5775 5773 5771 5769 5766 5764 5761 5758 5756 5754 5753 5751 5749 5748 5746 5743 5741 5739 5736 5733 5731 5728 5725
5811 5810 5807 5805 5804 5802 5799 5796 5795 5792 5789 5786 5785 5784 5782 5780 5779 5777 5775 5774 5771 5769 5767 5765 5763 5760 5758 5755 5753 5751 5749 5747 5746 5744 5743 5741 5739 5737 5735 5732 5730 5727 5725 5722
5806 5805 5803 5803 5798 5796 5794 5791 5789 5786 5784 5782 5780 5778 5777 5775 5773 5772 5769 5768 5766 5764 5762 5760 5757 5755 5752 5749 5747 5745 5743 5742 5741 5740 5739 5737 5735 5733 5731 5729 5727 5724 5721 5718
5802 5799 5797 5797 5793 5790 5788 5785 5783 5780 5778 5777 5775 5773 5771 5769 5768 5766 5764 5762 5760 5759 5756 5754 5752 5749 5747 5744 5742 5740 5739 5738 5737 5735 5734 5733 5731 5729 5728 5726 5723 5721 5718 5715
5797 5794 5792 5790 5787 5784 5783 5779 5777 5775 5773 5771 5770 5768 5767 5764 5762 5761 5759 5757 5755 5754 5751 5749 5747 5744 5742 5739 5737 5736 5734 5733 5732 5731 5730 5729 5727 5725 5724 5722 5720 5718 5715 5712
5791 5789 5786 5784 5781 5780 5779 5776 5772 5769 5767 5766 5764 5763 5761 5758 5757 5755 5754 5752 5750 5749 5746 5744 5742 5740 5737 5734 5733 5731 5730 5729 5728 5727 5726 5725 5723 5722 5720 5719 5717 5714 5712 5709
5787 5784 5783 5778 5775 5774 5772 5769 5766 5764 5762 5760 5758 5756 5754 5753 5751 5750 5748 5747 5745 5743 5741 5739 5737 5735 5733 5731 5729 5727 5726 5726 5725 5724 5723 5721 5720 5718 5717 5715 5714 5711 5709 5706
5781 5780 5776 5772 5769 5767 5764 5762 5760 5758 5756 5754 5752 5751 5749 5747 5745 5744 5743 5741 5740 5738 5736 5734 5733 5731 5729 5727 5726 5724 5723 5723 5722 5721 5719 5718 5717 5715 5714 5713 5711 5708 5706 5703
5774 5772 5769 5766 5764 5761 5758 5756 5754 5752 5750 5749 5747 5745 5743 5741 5739 5738 5737 5736 5735 5733 5732 5730 5729 5727 5726 5724 5722 5721 5720 5719 5719 5718 5717 5715 5714 5713 5712 5710 5708 5706 5704 5701
5769 5766 5763 5761 5758 5756 5753 5750 5749 5747 5745 5743 5741 5739 5737 5736 5734 5733 5732 5731 5729 5728 5727 5726 5725 5724 5723 5721 5720 5719 5718 5717 5716 5715 5714 5713 5712 5711 5710 5708 5706 5704 5701 5699
5763 5761 5758 5756 5753 5750 5748 5746 5744 5742 5741 5739 5736 5734 5733 5731 5729 5728 5727 5726 5725 5724 5723 5723 5722 5721 5720 5719 5718 5717 5716 5715 5714 5713 5713 5712 5711 5709 5708 5706 5704 5702 5699 5697
5757 5755 5752 5750 5747 5745 5743 5741 5739 5737 5735 5734 5732 5730 5728 5726 5725 5724 5723 5722 5721 5721 5720 5719 5719 5718 5717 5717 5716 5715 5714 5713 5713 5712 5711 5710 5709 5708 5706 5705 5702 5700 5697 5695
5751 5749 5747 5745 5742 5739 5738 5736 5734 5733 5731 5729 5727 5725 5724 5722 5721 5720 5720 5719 5718 5718 5717 5717 5716 5716 5716 5715 5715 5714 5713 5712 5712 5711 5710 5709 5708 5706 5705 5703 5701 5698 5695 5692
5746 5743 5741 5739 5737 5734 5733 5731 5730 5728 5727 5725 5723 5722 5720 5719 5718 5717 5717 5716 5716 5715 5715 5715 5715 5715 5715 5714 5714 5713 5713 5712 5711 5710 5709 5708 5706 5705 5703 5701 5699 5696 5694 5691
5740 5738 5736 5734 5732 5730 5728 5727 5725 5724 5723 5721 5720 5718 5717 5716 5715 5714 5714 5714 5713 5713 5713 5713 5713 5713 5713 5713 5713 5712 5712 5711 5710 5709 5708 5707 5705 5703 5702 5699 5697 5694 5692 5689
5734 5732 5731 5729 5727 5726 5724 5723 5721 5720 5719 5718 5716 5715 5714 5713 5712 5712 5711 5711 5711 5711 5711 5711 5711 5712 5712 5712 5712 5712 5711 5710 5709 5708 5707 5705 5704 5702 5700 5698 5695 5692 5689 5686
5728 5726 5725 5724 5722 5721 5720 5719 5717 5716 5715 5714 5713 5712 5711 5711 5710 5710 5709 5709 5709 5709 5710 5710 5711 5711 5712 5712 5711 5711 5711 5710 5708 5707 5706 5704 5702 5700 5698 5696 5693 5690 5687 5684
5723 5721 5720 5719 5718 5717 5716 5714 5713 5712 5712 5711 5710 5710 5709 5708 5708 5708 5708 5708 5708 5708 5709 5709 5710 5710 5711 5711 5711 5710 5710 5708 5707 5706 5705 5703 5701 5699 5697 5694 5691 5688 5685 5682
5717 5716 5715 5714 5713 5712 5711 5710 5709 5709 5708 5707 5707 5707 5706 5706 5706 5706 5706 5706 5707 5707 5708 5708 5709 5710 5710 5710 5710 5709 5708 5707 5706 5705 5703 5702 5699 5697 5695 5692 5690 5687 5684 5680
5712 5711 5710 5709 5708 5707 5706 5706 5705 5705 5704 5704 5704 5704 5704 5704 5704 5704 5704 5705 5706 5706 5707 5707 5708 5709 5709 5709 5709 5708 5707 5706 5705 5704 5702 5700 5698 5696 5693 5691 5688 5685 5682 5679
5706 5705 5705 5704 5703 5703 5702 5701 5701 5700 5700 5700 5700 5701 5701 5701 5702 5702 5702 5703 5704 5704 5705 5706 5707 5707 5708 5707 5707 5707 5706 5705 5704 5702 5701 5699 5697 5695 5692 5690 5687 5684 5680 5677
5700 5699 5699 5698 5698 5697 5697 5697 5696 5696 5696 5697 5697 5698 5698 5699 5699 5700 5701 5702 5702 5703 5704 5704 5705 5706 5706 5706 5706 5705 5704 5703 5702 5701 5699 5697 5695 5693 5691 5688 5685 5682 5679 5675
5693 5693 5693 5693 5692 5692 5692 5692 5692 5692 5692 5693 5694 5694 5695 5696 5697 5698 5699 5700 5700 5701 5702 5702 5703 5704 5704 5704 5704 5703 5703 5702 5700 5699 5697 5696 5694 5692 5689 5687 5683 5680 5677 5673
5687 5687 5687 5687 5687 5687 5686 5686 5687 5687 5688 5689 5690 5691 5692 5693 5694 5695 5697 5697 5698 5699 5700 5701 5702 5702 5702 5703 5702 5702 5701 5700 5699 5697 5696 5694 5692 5690 5688 5685 5682 5679 5675 5671
5680 5681 5681 5681 5681 5681 5681 5681 5682 5683 5684 5685 5687 5688 5689 5690 5692 5693 5694 5695 5696 5697 5698 5699 5700 5700 5700 5701 5700 5700 5699 5698 5697 5695 5694 5692 5691 5689 5686 5683 5680 5677 5673 5669
5673 5674 5674 5675 5676 5676 5676 5676 5677 5679 5680 5682 5683 5684 5686 5687 5689 5690 5691 5692 5693 5695 5696 5697 5697 5698 5698 5698 5698 5697 5697 5696 5695 5694 5692 5691 5689 5687 5685 5682 5679 5675 5672 5668